Regional Weather Roundup
Issued by NWS New Orleans/Baton Rouge, LA

Home | Current Version | Previous Version | Graphics & Text | Print | Product List | Glossary Off
Versions: 1 2 3 4 5 6 7 8 9 10 11 12 13 14 15 16 17 18 19 20 21 22 23 24 25 26 27 28 29 30 31 32 33 34 35 36 37 38 39 40 41 42 43 44 45 46 47 48 49 50

182
ASUS44 KLIX 202210
RWRLIX
NEW ORLEANS REGIONAL WEATHER ROUNDUP
NATIONAL WEATHER SERVICE NEW ORLEANS LA
400 PM CST SAT DEC 20 2014

NOTE: "FAIR" INDICATES FEW OR NO CLOUDS BELOW 12,000 FEET WITH NO
      SIGNIFICANT WEATHER AND/OR OBSTRUCTIONS TO VISIBILITY.
      SKY/WX - SKY CONDITION AND SIGNIFICANT WEATHER.
      TMP - AIR TEMPERATURE.     DP    - DEWPOINT TEMPERATURE.
      RH  - RELATIVE HUMIDITY.   PRES  - PRESSURE.
      HI  - HEAT INDEX.          WCI   - WIND CHILL INDEX.

*  THESE STATIONS ARE NOT NWS OR FAA STATIONS AND ARE NOT UNDER
   NWS QUALITY CONTROL.

LAZ038-040-048-061>063-065>067-069-202300-
SOUTHEAST LOUISIANA

CITY           SKY/WX    TMP DP  RH WIND       PRES   REMARKS
N.O. AUDUBON     N/A     53  50  89 MISG        N/A
N.O. INTL ARPT CLOUDY    52  48  86 N14       30.12R
N.O. LAKEFRONT CLOUDY    55  48  77 N16       30.12R
N.O. DOWNTOWN* CLOUDY    54  45  71 N9        30.11S
SLIDELL        CLOUDY    53  47  79 N9        30.11S
BATON ROUGE    CLOUDY    51  46  83 N7        30.13S
BOOTHVILLE     CLOUDY    55  52  89 N8        30.09R
BELLE CHASSE   CLOUDY    55  49  80 N7        30.10R
BOGALUSA*        N/A     53  46  78 NE9       30.15R
GALLIANO*      CLOUDY    56  51  82 MISG      30.10R
NEW ROADS*       N/A     53  46  78 NE3       30.14S
GONZALES*      CLOUDY    51  50  99 N5        30.12S
HAMMOND*       NOT AVBL
HOUMA*         CLOUDY    52  50  93 N9        30.10R
PORT FOURCHON* CLOUDY    55  52  88 NE13G21   30.11R

$$

MSZ070-080>082-202300-
SOUTHERN MISSISSIPPI

CITY           SKY/WX    TMP DP  RH WIND       PRES   REMARKS
MCCOMB         CLOUDY    50  43  77 N8        30.14R
GULFPORT       CLOUDY    51  47  86 N14       30.11R
BILOXI         CLOUDY    52  49  89 NE13      30.11R
PASCAGOULA     CLOUDY    52  48  86 N13       30.10R
STENNIS ARPT*  CLOUDY    52  45  76 N9        30.12R

$$

COASTAL OBSERVATIONS
LAKE AND NEARSHORE STATIONS

STATION/POSITION TIME  TEMP    WIND        PRES    WAVE
                       AIR SEA DIR/SP/G            HT/PER
                 (UTC) (F)     (DEG/KT/KT) (MB)    (FT/S)
PASCAGOULA       2200   52      10/ 10/ 14 1018.6
WAVELAND YACHT   2200   52      20/ 14/ 18 1018.5
GRAND ISLE       2200   54 60   40/ 12/ 16 1019.1
SOUTHWEST PASS   2200   57                 1018.2
NEW CANAL        2200   53 56   20/ 12/ 15 1019.9
SHELL BEACH      2200   53 57  360/ 14/ 16 1019.2

OFFSHORE STATIONS

STATION/POSITION TIME  TEMP    WIND        PRES    WAVE
                       AIR SEA DIR/SP/G            HT/PER
                 (UTC) (F)     (DEG/KT/KT) (MB)    (FT/S)
64 S DAUPHIN ISL 2200   65 74   50/ 19/ 25 1016.6    7/ 7

$$




USA.gov is the U.S. government's official web portal to all federal, state and local government web resources and services.